Find Starlink 5137

NORAD ID: 53975 Int'l Des: 2022-125 Owner: SPXS Country: US Constellation: starlink operational
LEOCIRCULAR

現在のビュー

3D地球を読み込み中...

About Starlink 5137

Starlink 5137 (NORAD 53975) is a starlink constellation satellite (v1.5) launched Oct 5, 2022 by SPXS of US. It operates in LEO, CIRCULAR orbit with a mass of 305.00 kg.

Starlink 5137について

説明を読み込み中...

次回通過

Passes for default location (London). Set your location on the main map for personalized predictions.

高度履歴

Loading altitude history...

軌道要素

1 53975U 22125M 26170.07114860 .00000321 00000-0 38259-4 0 9991
2 53975 53.1600 123.4723 0001247 87.4928 272.6206 15.08833935204703
Epoch: Jun 19, 2026 • Age: 8 hours

現在のステータス

高度 541.3 km
速度 7.60 km/s
衛星直下点 32.29°N, 94.8°E
打ち上げ日 Oct 5, 2022
運用期間 3.7 years
タイプ internet

技術仕様

分類 Payload
質量 305.00 kg
乾燥質量 290.00 kg
総質量 305.00 kg
長さ 0.20 m
直径 2.80 m
スパン 9.00 m
形状 Box + pan
製造者 SPXS
バスタイプ Starlink
フェーズステータス In Orbit
所有者/国 SPXS/US

Most Searched